CAPE
30 40 36 31 35 47 47 43 47 31 31 14 18 123 23 32 37 21 2 0 0 0 16 0 0 0 0 0 0 0 0 0 0 0 0 0 0 0 0 0 0 0 0 0 0
64 53 62 52 56 45 44 36 46 32 23 18 8 55 78 61 21 15 0 0 0 0 42 0 0 0 0 0 0 0 0 0 0 0 0 0 0 0 0 0 0 0 0 0 0
81 88 97 100 81 73 57 41 49 21 24 21 2 17 117 8 3 0 0 0 0 2 44 0 0 0 0 0 0 0 0 0 0 0 0 0 0 0 0 0 0 0 0 0 0
97 107 111 109 73 89 68 60 48 45 30 22 7 20 54 6 0 0 49 3 0 0 15 33 0 0 0 0 0 0 0 0 0 0 0 0 0 0 0 0 0 0 0 0 0
94 97 106 148 167 180 124 111 76 65 41 45 23 28 40 17 0 0 25 401 0 13 16 23 0 0 0 0 0 0 0 0 0 0 0 0 0 0 0 0 0 0 0 0 0
91 77 108 120 153 171 151 148 143 79 71 63 30 13 26 0 0 0 0 165 1 115 28 11 3 0 0 0 0 0 0 0 0 0 0 0 0 0 0 0 0 0 0 0 0
83 79 106 142 164 185 184 183 178 133 111 72 42 6 13 0 0 0 192 145 185 136 58 1 1 16 0 0 0 0 0 0 0 0 0 0 0 0 0 0 0 0 0 0 0
79 80 96 134 128 187 200 190 209 175 106 67 52 14 20 0 0 0 0 105 90 72 59 57 61 6 0 0 0 0 0 0 0 0 0 0 0 0 0 0 0 0 0 0 0
71 74 83 81 120 157 163 202 200 144 126 79 44 13 0 1 0 0 0 0 5 25 60 99 70 14 0 1 0 0 0 0 0 0 0 0 0 0 0 0 0 0 0 0 0
61 63 62 51 88 113 181 146 32 77 61 69 75 4 0 0 0 0 0 24 124 127 114 132 93 2 0 0 0 0 0 0 0 0 0 0 0 0 0 0 0 0 0 0 0
72 66 61 65 63 94 9 0 0 8 62 26 35 0 0 0 0 0 0 11 122 48 100 14 23 10 2 0 0 0 0 0 0 0 0 0 0 0 0 0 0 0 0 0 0
45 12 33 29 77 99 0 2 1 6 0 25 3 0 0 0 0 0 0 18 87 16 8 9 1 0 8 1 1 0 0 0 0 0 0 0 0 0 0 0 0 0 0 0 0
28 45 28 29 71 1 0 0 2 5 7 4 1 1 0 4 0 0 0 9 15 0 0 3 0 0 0 8 8 0 0 0 0 0 0 0 0 0 0 0 0 0 0 0 0
58 67 89 139 7 0 0 21 0 1 0 6 6 1 14 8 0 0 0 2 5 0 0 0 0 0 0 0 0 0 0 0 0 0 0 0 0 0 0 0 0 0 0 0 0
69 123 201 142 5 3 17 0 0 1 0 3 11 41 25 8 0 0 0 0 0 0 0 0 0 0 0 0 0 0 0 0 0 0 0 0 0 0 0 0 0 0 0 0 0
129 150 62 97 65 15 18 7 3 0 0 7 25 7 10 1 6 1 6 0 0 0 0 0 0 0 0 0 0 0 0 0 0 0 0 0 0 0 0 0 0 0 0 0 0
209 98 46 108 39 6 1 6 0 0 4 4 16 19 6 25 23 13 0 0 0 2 0 0 0 0 0 0 0 0 0 0 0 0 0 0 0 0 0 0 0 0 0 0 0
80 1 16 2 0 0 0 0 0 0 1 3 11 14 21 27 7 8 0 0 0 0 0 0 0 0 0 0 0 0 0 0 0 0 0 0 0 0 0 0 0 0 0 0 0
0 0 0 18 0 0 1 0 1 2 4 21 5 2 33 9 7 4 0 0 0 0 0 0 0 0 0 0 0 0 0 0 0 0 0 0 0 0 0 0 0 0 0 0 0
0 0 0 6 0 0 1 3 5 7 3 0 0 6 2 4 2 1 0 0 0 0 0 0 0 0 0 0 0 0 0 0 0 0 0 0 0 0 0 0 0 0 0 0 0
0 0 0 0 0 0 0 9 5 9 2 0 0 0 0 0 0 0 0 0 0 0 0 0 0 0 0 0 0 0 0 0 0 0 0 0 0 0 0 0 0 0 0 0 0
0 0 1 0 0 1 5 6 0 1 0 0 0 0 0 0 0 0 0 0 0 0 0 0 0 1 0 0 0 0 0 0 0 0 0 0 0 0 0 0 0 0 0 0 0
0 0 0 0 0 0 2 1 0 1 0 0 0 0 0 0 0 0 0 0 0 0 0 0 0 0 0 0 0 0 0 0 0 0 0 0 0 0 0 0 0 0 0 0 0
0 0 0 0 0 2 2 0 2 0 0 0 0 0 0 0 0 0 0 0 0 0 0 0 0 0 0 0 0 0 0 0 0 0 0 0 0 0 0 0 0 0 0 0 0
0 0 1 0 0 0 0 0 0 0 0 0 0 0 0 0 0 0 0 0 0 7 0 0 0 0 0 0 0 0 0 0 0 0 0 0 0 0 0 0 0 0 0 0 0
0 0 0 0 0 0 0 0 0 0 0 0 0 0 0 0 0 0 0 0 0 0 0 0 0 1 0 0 0 0 0 0 0 0 0 0 0 0 0 0 0 0 0 0 0
1 0 3 0 0 0 0 0 0 0 0 0 0 0 0 0 0 0 0 0 0 0 0 0 0 0 0 0 0 0 0 0 0 0 0 0 0 0 0 0 0 0 0 0 0
CIN
-0 -0 -0 -0 -0 -0 -0 -0 -0 -0 -0 -0 -15 -35 -0 -1 -1 -2 -0 -0 -0 -0 -2 -0 -0 -0 -0 -0 -0 -0 -0 -0 -0 -0 -0 -0 -0 -0 -0 -0 -0 -0 -0 -0 -0
-0 -0 -0 -0 -0 -0 -0 -0 -0 -0 -0 -0 -4 -23 -0 -1 -1 -0 -0 -0 -0 -0 -2 -0 -0 -0 -0 -0 -0 -0 -0 -0 -0 -0 -0 -0 -0 -0 -0 -0 -0 -0 -0 -0 -0
-0 -0 -0 -0 -0 -0 -0 -0 -0 -0 -0 -3 -0 -32 -37 -6 -0 -0 -0 -0 -0 -7 -3 -0 -0 -0 -0 -0 -0 -0 -0 -0 -0 -0 -0 -0 -0 -0 -0 -0 -0 -0 -0 -0 -0
-0 -0 -0 -0 -3 -0 -0 -0 -0 -0 -0 -0 -41 -39 -7 -2 -0 -0 -24 -4 -0 -0 -5 -12 -0 -0 -0 -0 -0 -0 -0 -0 -0 -0 -0 -0 -0 -0 -0 -0 -0 -0 -0 -0 -0
-0 -0 -0 -0 -0 -0 -0 -0 -0 -0 -0 -0 -32 -16 -2 -0 -0 -0 -61 -2 -0 -2 -15 -2 -3 -3 -0 -0 -0 -0 -0 -0 -0 -0 -0 -0 -0 -0 -0 -0 -0 -0 -0 -0 -0
-0 -0 -0 -0 -0 -0 -0 -0 -0 -0 -0 -0 -0 -0 -0 -0 -0 -0 -0 -10 -77 -4 -9 -14 -7 -0 -0 -0 -0 -0 -0 -0 -0 -0 -0 -0 -0 -0 -0 -0 -0 -0 -0 -0 -0
-0 -0 -0 -0 -0 -0 -0 -0 -0 -0 -0 -0 -0 -0 -0 -0 -0 -0 -31 -3 -10 -8 -6 -1 -15 -9 -0 -0 -0 -0 -0 -0 -0 -0 -0 -0 -0 -0 -0 -0 -0 -0 -0 -0 -0
-0 -0 -0 -0 -0 -0 -0 -0 -0 -0 -3 -0 -0 -2 -0 -0 -0 -0 -0 -27 -56 -53 -44 -50 -31 -26 -0 -0 -0 -0 -0 -0 -0 -0 -0 -0 -0 -0 -0 -0 -0 -0 -0 -0 -0
-0 -0 -0 -6 -1 -0 -0 -0 -0 -4 -1 -0 -1 -5 -0 -6 -0 -0 -0 -0 -38 -47 -46 -15 -21 -19 -0 -10 -0 -0 -0 -0 -0 -0 -0 -0 -0 -0 -0 -0 -0 -0 -0 -0 -0
-0 -0 -0 -34 -14 -1 -0 -0 -64 -41 -31 -9 -2 -11 -0 -0 -0 -0 -0 -30 -16 -7 -2 -1 -5 -41 -0 -2 -0 -0 -0 -0 -0 -0 -0 -0 -0 -0 -0 -0 -0 -0 -0 -0 -0
-0 -0 -0 -61 -33 -10 -3 -0 -0 -19 -7 -5 -1 -0 -0 -0 -0 -0 -0 -2 -22 -15 -0 -22 -1 -0 -1 -0 -0 -0 -0 -0 -0 -0 -0 -0 -0 -0 -0 -0 -0 -0 -0 -0 -0
-0 -0 -0 -0 -29 -6 -0 -6 -9 -9 -1 -5 -0 -0 -0 -0 -5 -0 -0 -5 -2 -20 -19 -11 -0 -0 -10 -14 -12 -0 -0 -0 -0 -0 -0 -0 -0 -0 -0 -0 -0 -0 -0 -0 -0
-0 -0 -8 -62 -20 -14 -0 -0 -6 -14 -1 -0 -0 -0 -0 -6 -0 -0 -0 -13 -10 -0 -0 -11 -0 -0 -9 -0 -0 -0 -0 -0 -0 -0 -0 -0 -0 -0 -0 -0 -0 -0 -0 -0 -0
-0 -1 -3 -1 -16 -0 -0 -19 -0 -4 -0 -0 -0 -0 -8 -7 -0 -0 -0 -1 -20 -0 -0 -0 -0 -0 -0 -0 -0 -0 -0 -0 -0 -0 -0 -0 -0 -0 -0 -0 -0 -0 -0 -0 -0
-0 -7 -0 -1 -24 -0 -17 -0 -0 -0 -0 -2 -0 -1 -10 -16 -0 -0 -0 -3 -0 -1 -0 -0 -0 -0 -0 -0 -0 -0 -0 -0 -0 -0 -0 -0 -0 -0 -0 -0 -0 -0 -0 -0 -0
-0 -0 -9 -8 -5 -9 -29 -30 -2 -0 -0 -0 -0 -0 -1 -2 -8 -13 -25 -0 -0 -0 -0 -0 -0 -0 -0 -0 -0 -0 -0 -0 -0 -0 -0 -0 -0 -0 -0 -0 -0 -0 -0 -0 -0
-0 -0 -12 -0 -4 -27 -22 -6 -0 -0 -0 -0 -1 -1 -4 -0 -2 -12 -5 -9 -0 -10 -0 -0 -0 -0 -0 -0 -0 -0 -0 -0 -0 -0 -0 -0 -0 -0 -0 -0 -0 -0 -0 -0 -0
-6 -12 -1 -4 -0 -0 -0 -0 -0 -0 -0 -0 -0 -2 -0 -1 -1 -0 -5 -0 -0 -0 -0 -0 -0 -0 -0 -0 -0 -0 -0 -0 -0 -0 -0 -0 -0 -0 -0 -0 -0 -0 -0 -0 -0
-0 -0 -0 -2 -2 -0 -1 -0 -0 -0 -0 -0 -0 -0 -0 -8 -3 -3 -0 -0 -0 -0 -0 -0 -0 -0 -0 -0 -0 -0 -0 -0 -0 -0 -0 -0 -0 -0 -0 -0 -0 -0 -0 -0 -0
-0 -0 -0 -18 -0 -0 -0 -0 -0 -0 -1 -0 -0 -0 -1 -1 -4 -12 -0 -0 -0 -0 -0 -0 -0 -0 -0 -0 -0 -0 -0 -0 -0 -0 -0 -0 -0 -0 -0 -0 -0 -0 -0 -0 -0
-0 -0 -0 -0 -0 -0 -0 -0 -1 -1 -6 -0 -0 -0 -0 -0 -0 -1 -0 -0 -0 -0 -0 -0 -0 -0 -0 -0 -0 -0 -0 -0 -0 -0 -0 -0 -0 -0 -0 -0 -0 -0 -0 -0 -0
-0 -0 -10 -3 -0 -0 -0 -0 -0 -12 -0 -0 -0 -0 -0 -0 -0 -0 -0 -0 -0 -0 -0 -0 -0 -0 -0 -0 -0 -0 -0 -0 -0 -0 -0 -0 -0 -0 -0 -0 -0 -0 -0 -0 -0
-0 -0 -0 -0 -0 -0 -0 -0 -0 -3 -0 -0 -0 -0 -0 -0 -0 -0 -0 -0 -0 -0 -0 -0 -0 -0 -0 -0 -0 -0 -0 -0 -0 -0 -0 -0 -0 -0 -0 -0 -0 -0 -0 -0 -0
-0 -0 -0 -0 -0 -0 -0 -0 -7 -11 -0 -0 -0 -0 -0 -0 -0 -0 -0 -0 -0 -0 -17 -0 -0 -0 -0 -0 -0 -0 -0 -0 -0 -0 -0 -0 -0 -0 -0 -0 -0 -0 -0 -0 -0
-0 -0 -0 -0 -1 -4 -0 -0 -0 -0 -0 -0 -0 -0 -0 -0 -0 -0 -0 -0 -0 -37 -0 -0 -0 -0 -0 -0 -0 -0 -0 -0 -0 -0 -0 -0 -0 -0 -0 -0 -0 -0 -0 -0 -0
-1 -0 -0 -0 -0 -0 -0 -0 -0 -0 -0 -0 -0 -1 -0 -0 -0 -0 -0 -0 -0 -0 -0 -0 -0 -0 -0 -0 -0 -0 -0 -0 -0 -0 -0 -0 -0 -0 -0 -0 -0 -0 -0 -0 -0
-1 -0 -0 -0 -0 -0 -0 -0 -0 -0 -0 -0 -0 -0 -0 -0 -0 -0 -0 -0 -0 -0 -0 -0 -0 -0 -0 -0 -0 -0 -0 -0 -0 -0 -0 -0 -0 -0 -0 -0 -0 -0 -0 -0 -0
Wind_Speed
18 17 15 16 16 15 15 16 18 20 19 21 18 15 11 10 7 4 13 10 11 20 4 6 7 5 3 3 4 4 3 5 6 7 4 1 2 2 2 5 3 3 5 3 10
21 20 18 18 17 17 15 14 17 20 19 19 20 19 12 7 4 11 12 18 21 19 5 8 8 8 3 5 4 5 5 10 6 5 1 4 3 4 6 7 4 4 4 6 11
23 21 19 20 18 17 18 19 17 19 18 21 20 18 12 5 4 10 20 30 22 19 9 5 5 7 6 4 5 5 6 5 4 4 1 2 6 2 3 6 2 3 6 4 3
21 18 17 14 18 19 20 18 19 19 20 19 21 17 11 7 8 3 6 21 23 15 10 5 4 8 6 6 4 3 6 4 5 5 1 0 4 4 4 7 2 3 5 6 2
20 22 21 19 19 20 17 19 20 20 19 19 19 14 5 5 10 6 11 10 19 13 15 10 6 5 7 7 1 4 2 4 4 5 3 1 6 7 7 11 4 7 5 8 7
22 21 20 18 17 18 17 17 17 17 18 18 17 13 5 10 5 7 6 10 15 12 14 10 8 6 4 4 10 3 7 7 4 4 3 4 6 4 4 8 10 7 8 8 8
21 19 19 18 17 17 16 15 16 17 17 16 17 7 7 15 1 5 5 7 10 10 9 6 6 7 4 3 5 1 3 2 5 3 5 2 11 9 7 9 12 15 8 8 10
19 18 17 17 15 17 14 15 19 19 18 14 13 2 4 7 8 6 3 4 6 6 5 8 6 4 3 1 3 6 3 3 3 6 5 7 20 1 10 8 10 11 13 8 9
19 17 18 17 16 16 15 18 18 20 17 12 5 5 4 1 5 5 2 5 5 3 2 6 5 2 3 5 3 1 4 4 5 6 4 8 3 4 8 9 11 12 13 9 10
18 18 18 18 18 15 14 22 21 13 6 5 5 5 4 5 5 5 4 4 4 10 5 5 5 5 5 5 8 5 5 3 5 2 3 7 9 15 9 5 8 10 11 11 10
19 18 17 18 17 16 8 6 6 2 1 4 4 4 4 3 5 3 5 5 4 3 5 4 2 8 13 7 3 6 3 3 3 1 3 6 5 14 9 6 9 12 15 15 15
19 20 18 15 15 15 3 0 5 4 4 2 8 4 3 7 6 6 8 6 6 4 6 4 3 10 4 3 1 3 1 3 5 0 2 6 11 17 15 11 14 17 17 17 14
21 19 18 16 15 4 2 4 3 1 2 4 5 6 5 4 4 7 10 3 5 5 3 4 3 9 8 2 4 1 4 3 3 4 3 7 8 6 5 4 5 8 11 11 14
23 22 20 17 7 2 4 2 4 2 3 2 4 4 6 6 5 5 7 4 3 6 5 4 3 13 8 6 6 4 3 2 3 3 2 4 8 7 7 9 6 8 7 9 10
25 26 23 13 2 3 2 3 5 1 4 5 5 3 4 1 12 2 1 1 5 6 5 2 4 7 4 5 4 3 4 5 3 4 2 1 2 10 4 7 4 5 9 9 8
28 22 10 1 3 3 6 5 2 3 3 6 5 9 6 4 3 5 3 4 4 6 6 3 1 3 3 4 3 8 5 6 4 2 2 2 4 9 3 2 6 6 9 10 11
25 15 6 0 2 6 5 2 5 3 1 4 8 11 8 13 7 5 4 4 4 5 3 3 3 2 5 7 6 6 6 3 5 4 5 3 2 11 9 9 5 5 7 8 8
16 10 8 6 4 5 3 3 6 3 2 1 12 13 6 7 8 7 6 3 3 5 4 4 0 3 1 4 5 1 6 6 4 1 4 2 6 7 4 3 5 3 4 5 11
8 4 3 5 3 2 2 3 2 2 3 9 12 7 4 5 5 6 1 4 3 1 6 5 1 1 2 3 6 3 2 3 6 4 3 3 8 9 5 4 3 8 8 8 8
2 3 3 5 5 4 3 5 2 5 10 6 5 2 7 3 4 4 4 2 3 2 1 5 5 2 3 4 5 3 7 4 4 2 3 4 6 6 4 2 5 10 10 9 7
4 3 4 6 3 4 3 5 4 8 8 5 3 5 5 5 5 2 5 1 3 4 2 4 4 2 4 2 5 2 1 5 4 3 4 3 7 6 3 2 5 8 9 8 11
2 3 3 4 4 1 2 4 8 4 4 4 6 7 4 5 3 3 6 2 6 6 4 1 5 3 2 2 3 3 5 5 5 3 1 2 9 2 4 5 6 13 11 13 7
2 2 2 2 4 3 2 3 2 3 4 1 3 2 2 5 5 4 3 3 7 5 6 4 2 3 4 5 4 2 4 4 5 4 5 5 8 2 7 11 11 11 13 11 6
3 3 4 1 1 2 2 3 3 3 2 4 4 5 5 4 5 4 3 4 3 5 7 7 3 5 6 5 4 3 4 6 7 3 4 8 9 16 17 11 15 12 8 11 11
3 1 1 4 3 3 3 2 4 5 4 7 4 5 6 4 3 4 3 2 5 4 4 4 3 0 4 5 2 4 5 7 8 10 7 5 7 20 17 17 12 6 10 12 12
2 3 2 3 5 6 4 6 5 4 4 4 6 8 7 3 1 5 6 2 2 3 4 3 3 3 5 4 7 5 8 9 10 10 12 18 24 23 15 6 4 7 10 11 13
2 2 3 4 4 3 4 3 5 2 8 7 5 4 9 5 1 2 3 5 6 6 3 5 4 2 4 4 3 6 10 12 6 6 9 13 15 5 6 8 3 6 7 9 11
Wind_Direction
316 316 310 312 314 314 318 313 312 311 307 314 310 262 228 243 255 236 239 230 206 244 195 143 152 160 124 228 181 141 118 188 206 177 229 303 41 304 308 261 313 296 184 273 127
313 311 311 309 309 308 305 300 301 302 307 296 298 315 219 218 235 243 227 230 231 233 229 158 167 141 178 196 200 159 169 201 196 195 175 330 41 330 355 347 319 325 352 76 128
322 317 311 314 312 304 302 305 302 296 293 306 296 297 215 142 282 246 227 221 220 223 202 168 128 138 179 167 205 176 195 200 230 202 22 352 330 303 4 308 221 318 322 35 101
323 314 305 300 302 302 302 303 302 295 288 295 291 289 212 145 220 226 206 205 209 203 199 163 160 154 158 194 202 181 213 183 231 270 146 236 301 281 201 226 175 292 300 317 268
317 319 319 307 302 300 307 303 300 292 286 293 287 302 177 198 231 276 325 218 194 190 200 183 154 151 165 175 171 191 235 214 249 278 234 234 249 240 253 263 199 286 309 301 308
324 324 317 314 308 304 305 302 296 298 289 289 289 318 201 223 237 249 271 167 180 167 185 166 171 174 174 203 186 207 197 256 259 247 242 222 234 195 260 263 285 178 245 271 284
327 326 321 319 317 313 310 309 300 296 292 290 292 315 202 217 163 353 168 172 173 172 162 169 143 165 160 139 195 182 185 249 231 214 232 193 258 224 227 256 259 279 213 229 231
333 326 322 317 315 312 307 303 295 290 288 283 282 2 242 239 272 338 174 134 169 177 159 167 125 130 163 133 74 133 105 190 254 179 234 164 261 241 221 232 263 271 280 263 235
332 326 324 323 319 309 294 304 295 290 284 278 276 186 209 229 187 218 253 152 145 130 177 173 142 150 116 132 87 213 171 192 295 207 219 188 321 271 243 216 240 253 264 262 276
329 327 325 320 321 317 310 309 293 290 270 238 244 132 269 216 157 150 169 106 135 128 103 147 173 164 133 159 191 162 187 217 198 167 163 269 270 276 276 284 259 274 270 267 261
329 325 318 317 319 318 337 340 10 32 186 215 154 172 91 267 97 133 132 116 132 123 173 168 139 182 180 178 123 134 152 176 237 241 340 257 260 278 271 280 270 260 262 264 259
330 329 318 319 322 319 92 343 230 270 311 236 336 304 274 267 145 143 129 162 165 144 137 117 181 173 114 60 77 95 331 260 283 266 309 314 293 272 267 246 233 246 251 256 261
327 320 313 311 318 21 179 250 261 249 269 59 293 311 282 178 105 160 160 164 138 124 111 121 122 130 134 156 208 170 182 216 242 323 65 323 280 260 299 273 272 266 265 268 256
316 313 311 306 305 174 275 233 193 314 89 248 182 254 234 148 69 115 182 152 151 126 123 106 107 151 141 176 146 150 215 190 60 53 259 30 292 300 295 310 266 282 284 286 276
321 316 306 295 194 181 300 62 115 12 99 157 176 167 258 67 135 187 338 53 127 119 108 193 134 128 123 162 138 163 126 113 105 88 28 5 118 271 332 324 355 52 349 345 328
330 331 343 18 132 143 93 88 75 37 119 150 134 173 124 123 75 115 205 61 94 78 64 81 93 84 118 61 129 142 82 50 57 85 18 252 144 284 254 13 333 7 6 11 11
333 7 25 89 50 120 104 87 37 94 309 156 154 125 105 133 106 127 87 79 120 119 71 27 7 35 98 73 39 76 67 345 354 14 220 138 124 251 289 302 272 351 357 345 359
355 27 23 39 95 109 62 44 48 332 266 243 117 100 97 128 113 125 103 98 36 91 112 144 52 179 155 141 162 71 130 157 218 236 286 241 235 253 174 27 94 87 298 328 5
5 353 26 16 22 59 354 18 256 266 286 125 92 97 85 57 104 93 12 126 149 109 121 115 31 155 131 121 122 194 96 183 105 25 35 256 286 313 53 72 35 358 358 348 340
57 360 9 349 343 60 38 304 274 208 119 67 87 86 131 121 98 105 143 169 128 143 91 189 102 50 104 97 55 140 153 73 4 111 282 296 273 240 279 287 340 343 341 322 321
47 52 279 340 49 41 59 334 348 24 28 52 118 103 100 119 102 90 167 58 174 168 83 119 100 337 99 167 171 139 137 61 110 123 153 322 269 215 243 187 327 301 293 278 323
34 39 314 359 55 52 0 328 319 318 351 18 73 85 97 102 96 103 185 211 180 144 136 39 115 135 140 348 197 172 175 139 121 219 72 156 274 321 289 240 271 312 313 316 303
53 289 318 33 47 12 330 330 238 245 279 111 97 105 141 130 112 112 161 320 179 132 161 187 31 68 10 351 359 183 192 133 113 85 201 147 260 205 276 317 326 318 320 329 319
62 11 326 345 223 290 329 357 303 207 336 51 96 102 101 76 41 141 115 29 106 159 143 89 105 150 188 204 140 195 197 175 138 138 192 237 291 299 298 309 317 333 355 338 326
31 74 328 336 349 354 333 334 27 23 33 40 59 103 115 108 96 105 88 77 41 72 73 99 128 252 266 248 212 221 210 185 191 205 181 234 253 276 295 307 314 348 342 333 332
18 356 333 284 318 337 340 356 36 13 38 13 67 46 59 90 286 172 126 120 152 50 83 27 116 36 289 280 217 242 231 218 221 231 255 261 275 279 286 287 343 345 338 337 336
339 330 312 314 341 357 327 5 2 76 33 48 86 85 54 1 327 121 131 129 150 134 121 129 115 57 278 340 313 288 226 199 196 208 217 238 249 295 311 333 335 333 340 339 339